User: anonymous   Login
Location: Unspecified
(0.0000°N, 0.0000°E)
Time: 19:25:02
(UTC+00:00)
Language:

STARLINK-5203 - Orbit

View from above orbital plane
View from above orbital plane
View from above satellite
View from above satellite

Ground track
Ground track

The orbit is defined by the following mean orbital elements,

1 54104U          26145.47767243 +.00000000 +00000-0 +27359-4 0 00005
2 54104  53.2158 313.9590 0001273  93.7849 266.3289 15.08838394    08
Epoch (UTC): 25 May 2026 11:27:50
Eccentricity: 0.0001273
inclination: 53.2158°
perigee height: 539 km
apogee height: 541 km
right ascension of ascending node: 313.9590°
argument of perigee: 93.7849°
revolutions per day: 15.08838394
mean anomaly at epoch: 266.3289°

The dashed part of the orbit path shows where the satellite is in the earth's shadow,  

DLR